| time (UTC) | temp C | wind direction | speed KPH | gust KPH | rain 1hr cm | rain 24hr cm | rain mn cm | humidity % | barometer mb |
| 20260506235018 | 12 | 260 | 3.2 | 9.7 | 0.00 | 1.30 | 0.58 | 51 | 1012.7 |
| 20260506234018 | 12 | 254 | 1.6 | 9.7 | 0.00 | 1.32 | 0.58 | 50 | 1012.6 |
| 20260506233018 | 12 | 225 | 1.6 | 4.8 | 0.00 | 1.32 | 0.58 | 52 | 1012.5 |
| 20260506232018 | 13 | 244 | 3.2 | 12.9 | 0.00 | 1.32 | 0.58 | 52 | 1012.8 |
| 20260506231015 | 13 | 227 | 1.6 | 6.4 | 0.00 | 1.32 | 0.58 | 52 | 1013.0 |
| 20260506230018 | 13 | 245 | 1.6 | 9.7 | 0.00 | 1.32 | 0.58 | 52 | 1013.0 |
| 20260506225016 | 12 | 212 | 1.6 | 4.8 | 0.00 | 1.32 | 0.58 | 52 | 1013.0 |
| 20260506224016 | 12 | 251 | 1.6 | 6.4 | 0.00 | 1.32 | 0.58 | 51 | 1013.1 |
| 20260506223016 | 13 | 264 | 3.2 | 11.3 | 0.00 | 1.32 | 0.58 | 50 | 1013.1 |
| 20260506222056 | 13 | 252 | 3.2 | 8.0 | 0.00 | 1.35 | 0.58 | 49 | 1013.2 |
| 20260506221016 | 13 | 249 | 3.2 | 9.7 | 0.00 | 1.40 | 0.58 | 49 | 1012.9 |
| 20260506220016 | 13 | 260 | 3.2 | 9.7 | 0.00 | 1.42 | 0.58 | 49 | 1012.8 |
| 20260506215037 | 13 | 218 | 1.6 | 4.8 | 0.00 | 1.45 | 0.58 | 49 | 1012.7 |
| 20260506214017 | 13 | 243 | 1.6 | 9.7 | 0.00 | 1.52 | 0.58 | 51 | 1012.6 |
| 20260506213017 | 13 | 261 | 3.2 | 11.3 | 0.00 | 1.60 | 0.58 | 50 | 1012.4 |
| 20260506212037 | 13 | 249 | 3.2 | 11.3 | 0.00 | 1.68 | 0.58 | 49 | 1012.3 |
| 20260506211017 | 13 | 235 | 1.6 | 6.4 | 0.00 | 1.75 | 0.58 | 49 | 1012.5 |
| 20260506210018 | 13 | 268 | 4.8 | 11.3 | 0.00 | 1.75 | 0.58 | 49 | 1012.3 |
| 20260506205018 | 13 | 250 | 3.2 | 11.3 | 0.00 | 1.75 | 0.58 | 49 | 1012.3 |
| 20260506204018 | 13 | 265 | 3.2 | 11.3 | 0.00 | 1.75 | 0.58 | 50 | 1012.1 |
| 20260506203018 | 14 | 244 | 3.2 | 9.7 | 0.00 | 1.75 | 0.58 | 49 | 1012.3 |
| 20260506202038 | 14 | 242 | 1.6 | 8.0 | 0.00 | 1.75 | 0.58 | 47 | 1012.4 |
| 20260506201035 | 14 | 248 | 1.6 | 6.4 | 0.00 | 1.75 | 0.58 | 50 | 1012.1 |
| 20260506200018 | 14 | 256 | 3.2 | 9.7 | 0.00 | 1.75 | 0.58 | 50 | 1012.1 |
| 20260506195016 | 15 | 232 | 3.2 | 8.0 | 0.00 | 1.75 | 0.58 | 50 | 1012.1 |
| 20260506194016 | 15 | 227 | 3.2 | 8.0 | 0.00 | 1.75 | 0.58 | 50 | 1012.1 |
| 20260506193016 | 15 | 227 | 3.2 | 8.0 | 0.00 | 1.75 | 0.58 | 48 | 1012.2 |
| 20260506192016 | 15 | 227 | 3.2 | 6.4 | 0.00 | 1.75 | 0.58 | 49 | 1012.1 |
| 20260506191017 | 15 | 228 | 3.2 | 8.0 | 0.00 | 1.75 | 0.58 | 47 | 1012.0 |
| 20260506190018 | 16 | 230 | 4.8 | 14.5 | 0.00 | 1.75 | 0.58 | 46 | 1012.3 |
| 20260506185017 | 16 | 231 | 6.4 | 12.9 | 0.00 | 1.75 | 0.58 | 46 | 1012.3 |
| 20260506184017 | 15 | 243 | 3.2 | 6.4 | 0.00 | 1.75 | 0.58 | 48 | 1012.5 |
| 20260506183037 | 15 | 262 | 6.4 | 17.7 | 0.00 | 1.75 | 0.58 | 48 | 1012.5 |
| 20260506182017 | 15 | 264 | 4.8 | 16.1 | 0.00 | 1.75 | 0.58 | 47 | 1012.6 |
| 20260506181118 | 15 | 257 | 3.2 | 12.9 | 0.00 | 1.75 | 0.58 | 49 | 1012.3 |
| 20260506180037 | 15 | 256 | 3.2 | 11.3 | 0.00 | 1.75 | 0.58 | 48 | 1012.6 |
| 20260506175058 | 16 | 244 | 3.2 | 8.0 | 0.00 | 1.75 | 0.58 | 48 | 1012.5 |
| 20260506174018 | 16 | 251 | 4.8 | 12.9 | 0.00 | 1.75 | 0.58 | 49 | 1012.8 |
| 20260506173018 | 15 | 245 | 3.2 | 14.5 | 0.00 | 1.75 | 0.58 | 46 | 1012.9 |
| 20260506172018 | 15 | 262 | 4.8 | 17.7 | 0.00 | 1.75 | 0.58 | 47 | 1012.7 |
| 20260506171016 | 15 | 224 | 3.2 | 9.7 | 0.00 | 1.75 | 0.58 | 49 | 1013.0 |
| 20260506170016 | 15 | 220 | 3.2 | 8.0 | 0.00 | 1.75 | 0.58 | 49 | 1013.1 |
| 20260506165016 | 15 | 215 | 3.2 | 8.0 | 0.00 | 1.75 | 0.58 | 52 | 1013.0 |
| 20260506164016 | 14 | 243 | 4.8 | 12.9 | 0.00 | 1.75 | 0.58 | 51 | 1013.0 |
| 20260506163016 | 13 | 236 | 3.2 | 12.9 | 0.00 | 1.75 | 0.58 | 53 | 1013.4 |
| 20260506162016 | 13 | 247 | 4.8 | 9.7 | 0.00 | 1.75 | 0.58 | 56 | 1013.4 |
| 20260506161016 | 13 | 243 | 3.2 | 8.0 | 0.00 | 1.75 | 0.58 | 58 | 1013.5 |
| 20260506160016 | 12 | 226 | 1.6 | 6.4 | 0.00 | 1.75 | 0.58 | 60 | 1013.0 |
| 20260506155017 | 12 | 271 | 4.8 | 16.1 | 0.00 | 1.75 | 0.58 | 60 | 1012.4 |
| 20260506154037 | 12 | 213 | 1.6 | 4.8 | 0.00 | 1.75 | 0.58 | 61 | 1012.4 |
| 20260506153017 | 12 | 232 | 3.2 | 9.7 | 0.00 | 1.75 | 0.58 | 61 | 1012.5 |
| 20260506152017 | 11 | 250 | 3.2 | 9.7 | 0.00 | 1.75 | 0.58 | 64 | 1012.6 |
| 20260506151018 | 11 | 256 | 3.2 | 11.3 | 0.00 | 1.75 | 0.58 | 67 | 1012.3 |
| 20260506150018 | 11 | 268 | 3.2 | 11.3 | 0.00 | 1.75 | 0.58 | 68 | 1012.0 |
| 20260506145017 | 10 | 254 | 1.6 | 8.0 | 0.00 | 1.75 | 0.58 | 73 | 1012.1 |
| 20260506144017 | 10 | 241 | 3.2 | 6.4 | 0.00 | 1.75 | 0.58 | 74 | 1012.1 |
| 20260506143017 | 10 | 253 | 1.6 | 8.0 | 0.00 | 1.75 | 0.58 | 76 | 1011.8 |
| 20260506142018 | 10 | 273 | 3.2 | 9.7 | 0.00 | 1.75 | 0.58 | 78 | 1011.6 |
| 20260506141018 | 9 | 233 | 1.6 | 6.4 | 0.00 | 1.75 | 0.58 | 81 | 1011.6 |
| 20260506140015 | 8 | 251 | 1.6 | 8.0 | 0.00 | 1.75 | 0.58 | 83 | 1011.2 |
| 20260506135036 | 8 | 273 | 3.2 | 8.0 | 0.00 | 1.75 | 0.58 | 84 | 1011.1 |
| 20260506134016 | 8 | 242 | 3.2 | 4.8 | 0.00 | 1.75 | 0.58 | 86 | 1011.2 |
| 20260506133016 | 8 | 217 | 1.6 | 4.8 | 0.00 | 1.75 | 0.58 | 89 | 1011.0 |
| 20260506132015 | 8 | 254 | 1.6 | 4.8 | 0.00 | 1.75 | 0.58 | 91 | 1010.8 |
| 20260506131036 | 7 | 265 | 1.6 | 6.4 | 0.00 | 1.75 | 0.58 | 91 | 1010.9 |
| 20260506130016 | 7 | 229 | 1.6 | 3.2 | 0.00 | 1.75 | 0.58 | 93 | 1010.7 |
| 20260506125016 | 7 | 227 | 1.6 | 4.8 | 0.00 | 1.75 | 0.58 | 95 | 1010.7 |
| 20260506124017 | 8 | 196 | 1.6 | 3.2 | 0.00 | 1.75 | 0.58 | 96 | 1010.4 |
| 20260506123016 | 8 | 219 | 1.6 | 8.0 | 0.00 | 1.75 | 0.58 | 97 | 1010.0 |
| 20260506122016 | 8 | 240 | 1.6 | 6.4 | 0.00 | 1.75 | 0.58 | 97 | 1009.8 |
| 20260506121016 | 7 | 200 | 1.6 | 3.2 | 0.00 | 1.75 | 0.58 | 97 | 1009.5 |
| 20260506120037 | 7 | 218 | 0.0 | 3.2 | 0.00 | 1.75 | 0.58 | 97 | 1009.7 |
| 20260506115017 | 7 | 194 | 0.0 | 1.6 | 0.00 | 1.75 | 0.58 | 97 | 1009.4 |
| 20260506114038 | 7 | 271 | 1.6 | 4.8 | 0.00 | 1.75 | 0.58 | 97 | 1009.6 |
| 20260506113017 | 7 | 258 | 1.6 | 4.8 | 0.00 | 1.75 | 0.58 | 97 | 1009.6 |
| 20260506112018 | 7 | 254 | 1.6 | 4.8 | 0.00 | 1.75 | 0.58 | 97 | 1008.6 |
| 20260506111018 | 7 | 225 | 1.6 | 4.8 | 0.00 | 1.75 | 0.58 | 97 | 1008.2 |
| 20260506110018 | 7 | 247 | 1.6 | 3.2 | 0.00 | 1.75 | 0.58 | 98 | 1008.4 |
| 20260506105059 | 7 | 243 | 1.6 | 6.4 | 0.00 | 1.75 | 0.58 | 98 | 1008.2 |
| 20260506104018 | 7 | 209 | 1.6 | 3.2 | 0.00 | 1.75 | 0.58 | 98 | 1008.6 |
| 20260506103019 | 7 | 253 | 1.6 | 8.0 | 0.00 | 1.75 | 0.58 | 98 | 1008.4 |
| 20260506102018 | 7 | 236 | 1.6 | 8.0 | 0.00 | 1.75 | 0.56 | 98 | 1008.1 |
| 20260506101018 | 7 | 181 | 0.0 | 1.6 | 0.00 | 1.75 | 0.56 | 97 | 1007.7 |
| 20260506100039 | 7 | 197 | 1.6 | 3.2 | 0.00 | 1.75 | 0.56 | 97 | 1007.2 |
| 20260506095019 | 7 | 231 | 0.0 | 3.2 | 0.00 | 1.75 | 0.56 | 97 | 1007.5 |
| 20260506094019 | 7 | 204 | 1.6 | 6.4 | 0.03 | 1.75 | 0.56 | 97 | 1006.8 |
| 20260506093040 | 7 | 221 | 1.6 | 3.2 | 0.05 | 1.75 | 0.56 | 97 | 1007.3 |
| 20260506092019 | 7 | 240 | 1.6 | 3.2 | 0.10 | 1.75 | 0.56 | 97 | 1007.6 |
| 20260506091040 | 7 | 179 | 1.6 | 3.2 | 0.13 | 1.75 | 0.56 | 97 | 1007.4 |
| 20260506090019 | 7 | 249 | 1.6 | 4.8 | 0.15 | 1.75 | 0.56 | 97 | 1007.0 |
| 20260506085020 | 7 | 216 | 1.6 | 4.8 | 0.15 | 1.73 | 0.56 | 97 | 1007.2 |
| 20260506084020 | 7 | 231 | 1.6 | 4.8 | 0.13 | 1.70 | 0.53 | 97 | 1007.6 |
| 20260506083020 | 7 | 224 | 1.6 | 6.4 | 0.10 | 1.68 | 0.51 | 97 | 1007.3 |
| 20260506082041 | 7 | 233 | 1.6 | 6.4 | 0.08 | 1.65 | 0.48 | 97 | 1007.1 |
| 20260506081020 | 7 | 220 | 3.2 | 8.0 | 0.05 | 1.60 | 0.43 | 97 | 1007.3 |
| 20260506073021 | 8 | 241 | 3.2 | 6.4 | 0.18 | 1.57 | 0.41 | 97 | 1006.6 |
| 20260506072015 | 8 | 241 | 3.2 | 9.7 | 0.23 | 1.57 | 0.41 | 97 | 1006.7 |
| 20260506071015 | 8 | 231 | 1.6 | 6.4 | 0.23 | 1.55 | 0.38 | 97 | 1006.6 |
| 20260506062017 | 9 | 241 | 3.2 | 30.6 | 0.18 | 1.35 | 0.18 | 97 | 1006.9 |
| 20260506061117 | 9 | 215 | 1.6 | 8.0 | 0.15 | 1.32 | 0.15 | 97 | 1006.9 |
| 20260506051035 | 9 | 185 | 1.6 | 4.8 | 0.00 | 1.19 | 0.00 | 97 | 1006.9 |
| 20260506045015 | 10 | 182 | 1.6 | 3.2 | 0.00 | 1.19 | 0.00 | 96 | 1007.1 |
| 20260506044016 | 10 | 186 | 1.6 | 4.8 | 0.00 | 1.19 | 0.00 | 96 | 1007.1 |
| 20260506043036 | 10 | 170 | 1.6 | 4.8 | 0.03 | 1.19 | 0.00 | 96 | 1007.1 |
| 20260506042016 | 10 | 175 | 1.6 | 6.4 | 0.08 | 1.19 | 0.00 | 96 | 1007.1 |
| 20260506041016 | 10 | 177 | 3.2 | 4.8 | 0.15 | 1.19 | 0.00 | 96 | 1007.1 |
| 20260506040016 | 10 | 217 | 3.2 | 8.0 | 0.25 | 1.19 | 0.00 | 96 | 1007.3 |
| 20260506035017 | 10 | 177 | 3.2 | 8.0 | 0.33 | 1.19 | 1.19 | 96 | 1007.4 |
| 20260506034017 | 10 | 180 | 3.2 | 6.4 | 0.36 | 1.17 | 1.17 | 95 | 1007.5 |
| 20260506033016 | 11 | 168 | 3.2 | 8.0 | 0.36 | 1.17 | 1.17 | 95 | 1007.6 |
| 20260506032017 | 11 | 169 | 4.8 | 12.9 | 0.33 | 1.12 | 1.12 | 95 | 1007.8 |
| 20260506031017 | 12 | 223 | 4.8 | 9.7 | 0.28 | 1.02 | 1.02 | 94 | 1008.0 |
| 20260506030017 | 14 | 226 | 4.8 | 6.4 | 0.23 | 0.91 | 0.91 | 94 | 1008.2 |
| 20260506025017 | 14 | 227 | 3.2 | 6.4 | 0.20 | 0.84 | 0.84 | 95 | 1008.2 |
| 20260506024017 | 15 | 227 | 3.2 | 4.8 | 0.23 | 0.84 | 0.84 | 95 | 1007.9 |
| 20260506023018 | 15 | 219 | 3.2 | 6.4 | 0.25 | 0.81 | 0.81 | 95 | 1007.9 |
| 20260506022018 | 15 | 184 | 8.0 | 14.5 | 0.25 | 0.79 | 0.79 | 95 | 1008.0 |
| 20260506021015 | 15 | 190 | 6.4 | 14.5 | 0.23 | 0.74 | 0.74 | 95 | 1008.0 |
| 20260506020016 | 15 | 171 | 9.7 | 17.7 | 0.20 | 0.69 | 0.69 | 96 | 1008.1 |
| 20260506015015 | 15 | 161 | 8.0 | 12.9 | 0.15 | 0.66 | 0.66 | 96 | 1008.1 |
| 20260506014016 | 15 | 171 | 9.7 | 17.7 | 0.10 | 0.58 | 0.58 | 95 | 1008.0 |
| 20260506013016 | 15 | 186 | 8.0 | 19.3 | 0.08 | 0.56 | 0.56 | 95 | 1007.9 |
| 20260506012056 | 15 | 205 | 1.6 | 4.8 | 0.05 | 0.53 | 0.53 | 95 | 1007.7 |
| 20260506011016 | 15 | 206 | 3.2 | 6.4 | 0.05 | 0.51 | 0.51 | 95 | 1007.5 |
| 20260506010016 | 15 | 209 | 3.2 | 9.7 | 0.05 | 0.51 | 0.51 | 95 | 1007.4 |
| 20260506005016 | 15 | 198 | 3.2 | 8.0 | 0.05 | 0.51 | 0.51 | 95 | 1007.6 |
| 20260506004016 | 15 | 203 | 1.6 | 6.4 | 0.05 | 0.48 | 0.48 | 95 | 1007.5 |
| 20260506003016 | 15 | 203 | 1.6 | 4.8 | 0.03 | 0.48 | 0.48 | 95 | 1007.6 |
| 20260506002017 | 15 | 184 | 3.2 | 8.0 | 0.03 | 0.46 | 0.46 | 95 | 1007.7 |
| 20260506001037 | 15 | 198 | 3.2 | 9.7 | 0.03 | 0.46 | 0.46 | 95 | 1007.6 |
| 20260506000038 | 15 | 205 | 1.6 | 8.0 | 0.03 | 0.46 | 0.46 | 95 | 1007.6 |